Santa Rosa, CA

1:18 AM PDT on May 24, 2018 (GMT -0700)
Sonoma County

Weather History for KSTS - November, 2013

Change the Weather History Date:

Friday, November 22, 2013

  Actual Average Record
Temperature  
Mean Temperature 60 °F 50 °F  
Max Temperature 76 °F 61 °F 76 °F (2013)
Min Temperature 44 °F 39 °F 30 °F (2007)
Degree Days  
Heating Degree Days 5    
Month to date heating degree days 210  
Since 1 July heating degree days 453  
Cooling Degree Days 0    
Month to date cooling degree days 0  
Year to date cooling degree days 415  
Growing Degree Days 10 (Base 50)    
Moisture  
Dew Point 6 °F    
Average Humidity 18    
Maximum Humidity 31    
Minimum Humidity 5    
Precipitation  
Precipitation 0.00 in 0.17 in 0.34 in (2016)
Month to date precipitation 1.08 3.28  
Year to date precipitation 8.13 27.84  
Since 1 July precipitation 1.61  
Sea Level Pressure  
Sea Level Pressure 29.94 in    
Wind  
Wind Speed 12 mph (NNE)    
Max Wind Speed 30 mph    
Max Gust Speed 38 mph    
Visibility 10 miles    
Events      
T = Trace of Precipitation, MM = Missing Value Source: NWS Daily Summary

Daily Weather History Graph

Daily Weather History Graph

Search for Another Location

Airport or City:

Astronomy

Nov. 22, 2013 Rise Set
Actual Time 7:00 AM PST 4:53 PM PST
Civil Twilight 6:32 AM PST 5:22 PM PST
Nautical Twilight 5:59 AM PST 5:54 PM PST
Astronomical Twilight 5:28 AM PST 6:26 PM PST
Moon 9:29 PM PST (11/22) 10:48 AM PST (11/22)
Length of Visible Light 10h 50m
Length of Day
9h 52m
Waning Gibbous, 77% of the Moon is Illuminated
Nov 22
Waning Gibbous
Nov 25
Last Quarter
Dec 2
New
Dec 9
First Quarter
Dec 17
Full

Hourly Weather History & Observations

Time (PST) Temp. Dew Point Humidity Pressure Visibility Wind Dir Wind Speed Gust Speed Precip Events Conditions
12:53 AM 59.0 °F 7.0 °F 13% 29.95 in 10.0 mi NNE 13.8 mph 28.8 mph N/A   Clear
1:53 AM 55.9 °F 8.1 °F 15% 29.97 in 10.0 mi Variable 4.6 mph - N/A   Clear
2:53 AM 57.9 °F 6.1 °F 13% 29.96 in 10.0 mi Variable 6.9 mph - N/A   Clear
3:53 AM 57.0 °F 5.0 °F 12% 29.98 in 10.0 mi East 5.8 mph 17.3 mph N/A   Clear
4:53 AM 57.9 °F 3.0 °F 11% 29.99 in 10.0 mi Variable 4.6 mph - N/A   Clear
5:53 AM 50.0 °F 10.9 °F 21% 29.99 in 10.0 mi Calm Calm - N/A   Clear
6:53 AM 45.0 °F 16.0 °F 31% 29.99 in 10.0 mi Calm Calm - N/A   Clear
7:53 AM 48.0 °F 19.0 °F 32% 30.00 in 10.0 mi Calm Calm - N/A   Clear
8:53 AM 64.0 °F 1.9 °F 8% 30.00 in 10.0 mi Calm Calm - N/A   Clear
9:53 AM 66.9 °F 1.9 °F 8% 29.99 in 10.0 mi ESE 4.6 mph - N/A   Clear
10:53 AM 70.0 °F 1.9 °F 7% 29.97 in 10.0 mi NNE 21.9 mph 33.4 mph N/A   Clear
11:53 AM 72.0 °F 3.0 °F 7% 29.95 in 10.0 mi NNE 24.2 mph 31.1 mph N/A   Clear
12:53 PM 73.9 °F 5.0 °F 7% 29.92 in 10.0 mi NNE 11.5 mph 20.7 mph N/A   Clear
1:53 PM 75.0 °F 3.9 °F 6% 29.90 in 10.0 mi NNE 19.6 mph 31.1 mph N/A   Clear
2:53 PM 75.0 °F 1.9 °F 6% 29.89 in 10.0 mi NNE 18.4 mph 31.1 mph N/A   Clear
3:53 PM 73.0 °F 1.0 °F 6% 29.90 in 10.0 mi NNE 17.3 mph 26.5 mph N/A   Clear
4:53 PM 70.0 °F 3.0 °F 7% 29.91 in 10.0 mi North 17.3 mph 32.2 mph N/A   Clear
5:53 PM 68.0 °F 6.1 °F 9% 29.91 in 10.0 mi NE 13.8 mph 32.2 mph N/A   Clear
6:53 PM 68.0 °F 8.1 °F 10% 29.90 in 10.0 mi NNE 21.9 mph 38.0 mph N/A   Clear
7:53 PM 66.0 °F 7.0 °F 10% 29.89 in 10.0 mi North 11.5 mph 20.7 mph N/A   Clear
8:53 PM 66.0 °F 8.1 °F 10% 29.89 in 10.0 mi North 19.6 mph 26.5 mph N/A   Clear
9:53 PM 66.0 °F 8.1 °F 10% 29.90 in 10.0 mi NNE 27.6 mph 35.7 mph N/A   Clear
10:53 PM 64.9 °F 8.1 °F 11% 29.91 in 10.0 mi NE 13.8 mph 29.9 mph N/A   Clear
11:53 PM 64.0 °F 9.0 °F 12% 29.93 in 10.0 mi North 12.7 mph 25.3 mph N/A   Clear